Regional Weather Roundup
Issued by NWS Kansas City/Pleasant Hill, MO

Home | Current Version | Previous Version | Graphics & Text | Print | Product List | Glossary Off
Versions: 1 2 3 4 5 6 7 8 9 10 11 12 13 14 15 16 17 18 19 20 21 22 23 24 25 26 27 28 29 30 31 32 33 34 35 36 37 38 39 40 41 42 43 44 45 46 47 48 49 50

000
ASUS43 KEAX 250310
RWREAX

WEATHER ROUNDUP FOR EASTERN KANSAS AND NORTHWEST MISSOURI
NATIONAL WEATHER SERVICE KANSAS CITY/PLEASANT HILL MO
1000 PM CDT WED AUG 24 2016

KSZ040-057-103>105-MOZ028-029-037-043-250400-
...KANSAS CITY METROPOLITAN AREA...

CITY           SKY/WX    TMP DP  RH WIND       PRES   REMARKS
K.C. INTL      LGT RAIN  72  68  87 E7        30.03R
K.C. DOWNTOWN  TSTM      74  71  91 NE6       30.02R FOG
LEES SUMMIT    TSTM      70  69  97 S9        30.08R FOG
OLATHE - IXD   HVY RAIN  71  70  96 NE7       30.04F VSB 1
OLATHE - OJC   TSTM      70  70 100 CALM      30.05R FOG
LAWRENCE       LGT RAIN  73 N/A N/A MISG      30.03F

$$

MOZ001>008-011>017-020>025-030>033-038>040-044>046-053-054-250400-
...NORTHERN AND CENTRAL MISSOURI...

CITY           SKY/WX    TMP DP  RH WIND       PRES   REMARKS
ST. JOSEPH     CLOUDY    70  68  93 CALM      30.02S
MOSBY          TSTM      72  70  94 N7        30.04S
WHITEMAN AFB   MOCLDY    80  75  83 N16G29    29.99R THUNDER
CLINTON        MOCLDY    81  73  78 S10       29.99R
SEDALIA        PTCLDY    81  75  82 S8        29.99R
WARSAW         NOT AVBL
CHILLICOTHE      N/A     75  73  93 CALM      30.04R
KIRKSVILLE     RAIN      76  74  93 NW9       30.02R FOG

$$

MOZ041-047>049-056>058-063>065-088>090-097-250400-
...EASTERN AND SOUTHERN MISSOURI...

CITY           SKY/WX    TMP DP  RH WIND       PRES   REMARKS
ST. LOUIS INTL MOCLDY    87  74  64 S10       30.02R HX  95
SPIRIT OF STL  PTCLDY    83  74  74 S6        30.00R
COLUMBIA       PTCLDY    79  75  87 SE8       29.99F
JEFFERSON CITY CLEAR     80  76  87 SE5       29.99R
ROLLA          CLEAR     80  73  79 S10       30.05R
OSAGE BEACH    CLEAR     81  74  79 S8        30.03R
SPRINGFIELD    CLEAR     80  69  69 S12       30.06R
BRANSON        CLEAR     77  72  83 S5        30.11R
JOPLIN         CLEAR     82  69  64 S12       30.03R
WEST PLAINS    CLEAR     79  70  74 S6        30.12R

$$

IAZ060-094-KSZ022-034>040-054-083-096-NEZ052-066-093-250400-
...KANSAS...SOUTHEAST NEBRASKA AND IOWA...

CITY           SKY/WX    TMP DP  RH WIND       PRES   REMARKS
TOPEKA         CLOUDY    73  70  90 CALM      30.02R
MANHATTAN      CLOUDY    71  64  78 NE6       30.03R
EMPORIA        CLOUDY    72  71  97 S7        30.03R
CHANUTE        CLOUDY    73  68  84 CALM      30.00S
WICHITA        MOCLDY    76  68  76 NE5       30.03R
OMAHA          CLOUDY    68  62  81 NW8       30.06R
LINCOLN        PTCLDY    66  62  87 N6        30.07S
FALLS CITY     CLOUDY    69  69 100 SE3       30.02S
LAMONI         LGT RAIN  68  67  96 N8        30.02F
DES MOINES     CLOUDY    73  69  87 NW3       30.02S

$$




USA.gov is the U.S. government's official web portal to all federal, state and local government web resources and services.